| time (UTC) | temp C | wind direction | speed KPH | gust KPH | rain 1hr cm | rain 24hr cm | rain mn cm | humidity % | barometer mb |
| 20260505153030 | 10 | 348 | 12.9 | 25.7 | 0.03 | 0.36 | 0.36 | 86 | 1009.0 |
| 20260505151536 | 10 | 340 | 9.7 | 29.0 | 0.05 | 0.36 | 0.36 | 89 | 1009.1 |
| 20260505124503 | -17 | 0.0 | 0.0 | 0.00 | 0.30 | 0.30 | 1008.2 | ||
| 20260505123104 | -17 | 0.0 | 0.0 | 0.00 | 0.30 | 0.30 | 1007.5 | ||
| 20260505121615 | -17 | 0.0 | 0.0 | 0.00 | 0.30 | 0.30 | 1007.1 | ||
| 20260505120051 | -17 | 0.0 | 0.0 | 0.00 | 0.30 | 0.30 | 1006.5 | ||
| 20260505114545 | -17 | 0.0 | 0.0 | 0.00 | 0.30 | 0.30 | 1006.7 | ||
| 20260505113042 | -17 | 0.0 | 0.0 | 0.00 | 0.30 | 0.30 | 1006.5 | ||
| 20260505111541 | -17 | 0.0 | 0.0 | 0.00 | 0.30 | 0.30 | 1006.2 | ||
| 20260505101522 | 15 | 329 | 9.7 | 20.9 | 0.00 | 0.30 | 0.30 | 90 | 1006.2 |
| 20260505100022 | 15 | 22 | 17.7 | 25.7 | 0.00 | 0.30 | 0.30 | 93 | 1006.2 |
| 20260505094517 | 15 | 53 | 1.6 | 8.0 | 0.03 | 0.30 | 0.30 | 99 | 1005.7 |
| 20260505093026 | 16 | 38 | 0.0 | 1.6 | 0.05 | 0.30 | 0.30 | 99 | 1005.8 |
| 20260505091516 | 15 | 23 | 0.0 | 6.4 | 0.05 | 0.30 | 0.30 | 99 | 1005.5 |
| 20260505090015 | 15 | 338 | 6.4 | 19.3 | 0.05 | 0.30 | 0.30 | 99 | 1005.7 |
| 20260505084517 | 16 | 350 | 9.7 | 19.3 | 0.03 | 0.28 | 0.28 | 99 | 1006.0 |
| 20260505083013 | 16 | 337 | 0.0 | 1.6 | 0.00 | 0.25 | 0.25 | 99 | 1004.4 |
| 20260505081516 | 16 | 138 | 1.6 | 9.7 | 0.00 | 0.25 | 0.25 | 99 | 1003.8 |
| 20260505080011 | 16 | 144 | 1.6 | 12.9 | 0.00 | 0.25 | 0.25 | 99 | 1003.9 |
| 20260505074511 | 16 | 128 | 0.0 | 9.7 | 0.00 | 0.25 | 0.25 | 98 | 1003.3 |
| 20260505073010 | 16 | 151 | 3.2 | 11.3 | 0.05 | 0.25 | 0.25 | 98 | 1003.2 |
| 20260505071508 | 16 | 174 | 8.0 | 14.5 | 0.20 | 0.25 | 0.25 | 98 | 1003.3 |
| 20260505070007 | 16 | 146 | 17.7 | 32.2 | 0.25 | 0.25 | 0.25 | 97 | 1002.4 |
| 20260505064504 | 16 | 165 | 16.1 | 29.0 | 0.25 | 0.25 | 0.25 | 95 | 1003.4 |
| 20260505063059 | 17 | 180 | 6.4 | 20.9 | 0.20 | 0.20 | 0.20 | 92 | 1005.3 |
| 20260505061557 | 17 | 156 | 14.5 | 40.2 | 0.05 | 0.05 | 0.05 | 89 | 1005.4 |
| 20260505060050 | 19 | 177 | 8.0 | 20.9 | 0.00 | 0.00 | 0.00 | 81 | 1005.3 |
| 20260505054547 | 19 | 155 | 3.2 | 11.3 | 0.00 | 0.00 | 0.00 | 78 | 1004.6 |
| 20260505053048 | 20 | 198 | 1.6 | 11.3 | 0.00 | 0.00 | 0.00 | 77 | 1004.2 |
| 20260505051543 | 20 | 151 | 6.4 | 11.3 | 0.00 | 0.00 | 0.00 | 77 | 1003.9 |
| 20260505041538 | 20 | 143 | 4.8 | 9.7 | 0.00 | 0.00 | 0.00 | 76 | 1004.5 |
| 20260505040037 | 20 | 186 | 6.4 | 11.3 | 0.00 | 0.00 | 0.00 | 76 | 1004.2 |
| 20260505034536 | 20 | 165 | 4.8 | 9.7 | 0.00 | 0.00 | 0.00 | 76 | 1004.9 |
| 20260505033100 | 20 | 146 | 1.6 | 8.0 | 0.00 | 0.00 | 0.00 | 76 | 1005.0 |
| 20260505031538 | 20 | 163 | 1.6 | 9.7 | 0.00 | 0.00 | 0.00 | 76 | 1004.8 |
| 20260505030034 | 20 | 145 | 1.6 | 4.8 | 0.00 | 0.00 | 0.00 | 75 | 1004.8 |
| 20260505024534 | 20 | 146 | 0.0 | 6.4 | 0.00 | 0.00 | 0.00 | 75 | 1004.9 |
| 20260505023037 | 20 | 146 | 1.6 | 8.0 | 0.00 | 0.00 | 0.00 | 75 | 1004.9 |
| 20260505021532 | 21 | 142 | 1.6 | 4.8 | 0.00 | 0.00 | 0.00 | 75 | 1004.7 |
| 20260505020031 | 21 | 162 | 1.6 | 6.4 | 0.00 | 0.00 | 0.00 | 73 | 1004.4 |
| 20260505014533 | 21 | 138 | 0.0 | 4.8 | 0.00 | 0.00 | 0.00 | 72 | 1004.4 |
| 20260505013030 | 22 | 141 | 4.8 | 11.3 | 0.00 | 0.00 | 0.00 | 70 | 1004.2 |
| 20260505011530 | 22 | 120 | 4.8 | 12.9 | 0.00 | 0.00 | 0.00 | 69 | 1004.1 |
| 20260505010029 | 22 | 149 | 3.2 | 11.3 | 0.00 | 0.00 | 0.00 | 68 | 1004.1 |
| 20260505004539 | 23 | 132 | 1.6 | 20.9 | 0.00 | 0.00 | 0.00 | 66 | 1004.0 |
| 20260505003027 | 23 | 213 | 6.4 | 22.5 | 0.00 | 0.00 | 0.00 | 65 | 1004.0 |
| 20260505001526 | 23 | 212 | 8.0 | 24.1 | 0.00 | 0.00 | 0.00 | 65 | 1004.0 |
| 20260505000027 | 23 | 202 | 1.6 | 14.5 | 0.00 | 0.00 | 0.00 | 67 | 1003.9 |
| 20260504234530 | 24 | 158 | 3.2 | 12.9 | 0.00 | 0.00 | 0.00 | 66 | 1003.8 |
| 20260504233024 | 25 | 257 | 3.2 | 12.9 | 0.00 | 0.00 | 0.00 | 65 | 1003.9 |
| 20260504231623 | 25 | 140 | 1.6 | 19.3 | 0.00 | 0.00 | 0.00 | 64 | 1003.9 |
| 20260504230023 | 25 | 157 | 8.0 | 22.5 | 0.00 | 0.00 | 0.00 | 62 | 1004.0 |
| 20260504224523 | 25 | 199 | 8.0 | 16.1 | 0.00 | 0.00 | 0.00 | 63 | 1003.8 |
| 20260504223022 | 25 | 246 | 8.0 | 29.0 | 0.00 | 0.00 | 0.00 | 62 | 1003.7 |
| 20260504221523 | 25 | 241 | 9.7 | 24.1 | 0.00 | 0.00 | 0.00 | 62 | 1003.6 |
| 20260504220021 | 26 | 192 | 6.4 | 20.9 | 0.00 | 0.00 | 0.00 | 64 | 1003.6 |
| 20260504214524 | 26 | 148 | 11.3 | 22.5 | 0.00 | 0.00 | 0.00 | 61 | 1003.6 |
| 20260504213023 | 27 | 176 | 9.7 | 24.1 | 0.00 | 0.00 | 0.00 | 60 | 1003.8 |
| 20260504211516 | 27 | 155 | 9.7 | 25.7 | 0.00 | 0.00 | 0.00 | 61 | 1003.8 |
| 20260504210015 | 27 | 252 | 9.7 | 37.0 | 0.00 | 0.00 | 0.00 | 60 | 1003.9 |
| 20260504204528 | 27 | 230 | 12.9 | 32.2 | 0.00 | 0.00 | 0.00 | 60 | 1004.1 |
| 20260504203013 | 27 | 213 | 6.4 | 25.7 | 0.00 | 0.00 | 0.00 | 60 | 1004.2 |
| 20260504201510 | 27 | 186 | 11.3 | 24.1 | 0.00 | 0.00 | 0.00 | 58 | 1004.5 |
| 20260504200010 | 27 | 161 | 4.8 | 20.9 | 0.00 | 0.00 | 0.00 | 58 | 1004.6 |
| 20260504194509 | 27 | 227 | 6.4 | 19.3 | 0.00 | 0.00 | 0.00 | 60 | 1004.8 |
| 20260504193012 | 27 | 128 | 12.9 | 29.0 | 0.00 | 0.00 | 0.00 | 58 | 1004.8 |
| 20260504191502 | 27 | 199 | 8.0 | 22.5 | 0.00 | 0.00 | 0.00 | 60 | 1005.1 |
| 20260504184604 | 26 | 157 | 9.7 | 22.5 | 0.00 | 0.00 | 0.00 | 59 | 1005.5 |
| 20260504183100 | 26 | 191 | 11.3 | 29.0 | 0.00 | 0.00 | 0.00 | 59 | 1005.4 |
| 20260504181552 | 25 | 101 | 8.0 | 30.6 | 0.00 | 0.00 | 0.00 | 59 | 1005.6 |
| 20260504180051 | 25 | 279 | 9.7 | 29.0 | 0.00 | 0.00 | 0.00 | 60 | 1005.9 |
| 20260504174550 | 25 | 250 | 8.0 | 30.6 | 0.00 | 0.00 | 0.00 | 60 | 1006.0 |
| 20260504173046 | 25 | 116 | 11.3 | 29.0 | 0.00 | 0.00 | 0.00 | 60 | 1005.9 |
| 20260504171547 | 24 | 207 | 11.3 | 29.0 | 0.00 | 0.00 | 0.00 | 62 | 1005.8 |